{"data":{"norad_id":53145,"intl_designator":"2022-083P","name":"STARLINK-4106","alt_names":[],"object_type":"PAYLOAD","status":"ACTIVE","operator":null,"country":"US","launch_date":"2022-07-17","launch_site_code":"AFETR","launch_vehicle":null,"mission":null,"orbit_class":"UNKNOWN","rcs_meters":null,"size_class":null,"mass_kg":null,"dimensions":null,"purposes":["comms"],"wikipedia_slug":null,"has_3d_model":false,"image_url":null,"decayed_at":null,"tle_current":{"epoch":"2026-09-19T22:00:56.795328Z","epoch_age_seconds":122562,"freshness":"FRESH","line1":"1 53145U 22083P   26262.91732402  .00000527  00000+0  28723-4 0  9998","line2":"2 53145  53.1608   9.6392 0001001  73.1073 287.0038 15.31703759230717","mean_motion":15.31703759,"eccentricity":0.0001001,"inclination_deg":53.1608,"raan_deg":9.6392,"arg_perigee_deg":73.1073,"mean_anomaly_deg":287.0038,"bstar":2.8723e-5,"rev_number":23071,"period_min":94.012957240513,"perigee_km":470.0432183996,"apogee_km":471.41436133073,"semimajor_km":6848.8657898652,"source":"CELESTRAK","updated_at":"2026-09-20T09:00:40.180895Z"}}}